User: anonymous   Login
Location: Oriwa
(40.7500°S, 175.3333°E)
Time: 02:04:58
(UTC+00:00)
Language:

Cosmos 1464 Rocket - Orbit

View from above orbital plane
View from above orbital plane
View from above satellite
View from above satellite

Ground track
Ground track

The orbit data is extracted from the following two-line orbital elements,

1 14085U 83048B   24106.28691424  .00000115  00000-0  10205-3 0  9998
2 14085  82.9467  38.3653 0032970 333.5028  26.4442 13.76447072 53460
Epoch (UTC): 15 April 2024 06:53:09
Eccentricity: 0.0032970
inclination: 82.9467°
perigee height: 952 km
apogee height: 1001 km
right ascension of ascending node: 38.3653°
argument of perigee: 333.5028°
revolutions per day: 13.76447072
mean anomaly at epoch: 26.4442°
orbit number at epoch: 5346

The dashed part of the orbit path shows where the satellite is in the earth's shadow,  

DLR